Weather History for Bentonville, AR

Change the Weather History Date:

Sunday, October 21, 2012

  Actual Average Record
Temperature  
Mean Temperature 68 °F -  
Max Temperature 78 °F 68 °F 88 °F (1950)
Min Temperature 57 °F 43 °F 18 °F (1989)
Cooling Degree Days 2    
Growing Degree Days 18 (Base 50)    
Moisture  
Dew Point 57 °F    
Average Humidity 70    
Maximum Humidity 78    
Minimum Humidity 59    
Precipitation  
Precipitation 0.00 in - - ()
Sea Level Pressure  
Sea Level Pressure 29.85 in    
Wind  
Wind Speed 8 mph (SSE)    
Max Wind Speed 18 mph    
Max Gust Speed 25 mph    
Visibility 10 miles    
Events      
Averages and records for this station are not official NWS values.
T = Trace of Precipitation, MM = Missing Value Source: NWS Daily Summary

Daily Weather History Graph

Daily Weather History Graph

Search for Another Location

Airport:

Trip Planner

Search our weather history database for the weather conditions in past years. The results will help you decide how hot, cold, wet, or windy it might be!

Date:

Astronomy

Oct. 21, 2012 Rise Set
Actual Time 7:29 AM CDT 6:32 PM CDT
Civil Twilight 7:03 AM CDT 6:58 PM CDT
Nautical Twilight 6:33 AM CDT 7:28 PM CDT
Astronomical Twilight 6:03 AM CDT 7:58 PM CDT
Moon 1:47 PM CDT (10/21) No Moon Set
Length of Visible Light 11h 54m
Length of Day
11h 02m
Waxing Crescent, 45% of the Moon is Illuminated
Oct 21
Waxing Crescent
Oct 21
First Quarter
Oct 29
Full
Nov 6
Last Quarter
Nov 13
New

Hourly Weather History & Observations

Time (CDT) Temp. Dew Point Humidity Pressure Visibility Wind Dir Wind Speed Gust Speed Precip Events Conditions
12:15 AM 60.8 °F 46.4 °F 59% 29.83 in 10.0 mi SSE 5.8 mph - N/A   Clear
12:35 AM 60.8 °F 46.4 °F 59% 29.83 in 10.0 mi SSE 4.6 mph - N/A   Clear
12:55 AM 60.8 °F 46.4 °F 59% 29.83 in 10.0 mi SSE 5.8 mph - N/A   Clear
1:15 AM 57.2 °F 46.4 °F 67% 29.83 in 10.0 mi SE 5.8 mph - N/A   Clear
1:35 AM 59.0 °F 46.4 °F 63% 29.83 in 10.0 mi SSE 4.6 mph - N/A   Clear
1:55 AM 59.0 °F 46.4 °F 63% 29.82 in 10.0 mi SSE 5.8 mph - N/A   Scattered Clouds
2:15 AM 59.0 °F 46.4 °F 63% 29.82 in 10.0 mi SSE 5.8 mph - N/A   Partly Cloudy
2:35 AM 60.8 °F 48.2 °F 63% 29.82 in 10.0 mi SSE 5.8 mph - N/A   Clear
2:55 AM 60.8 °F 48.2 °F 63% 29.82 in 10.0 mi SSE 6.9 mph - N/A   Clear
3:15 AM 59.0 °F 48.2 °F 67% 29.82 in 10.0 mi SSE 5.8 mph - N/A   Clear
3:35 AM 57.2 °F 48.2 °F 72% 29.82 in 10.0 mi SE 4.6 mph - N/A   Partly Cloudy
3:55 AM 57.2 °F 48.2 °F 72% 29.82 in 10.0 mi SE 5.8 mph - N/A   Clear
4:35 AM 60.8 °F 48.2 °F 63% 29.82 in 10.0 mi SE 6.9 mph - N/A   Clear
4:55 AM 60.8 °F 48.2 °F 63% 29.82 in 10.0 mi SE 5.8 mph - N/A   Clear
5:15 AM 59.0 °F 48.2 °F 67% 29.82 in 10.0 mi SSE 6.9 mph - N/A   Clear
5:36 AM 60.8 °F 48.2 °F 63% 29.83 in 10.0 mi SE 6.9 mph - N/A   Clear
5:55 AM 59.0 °F 48.2 °F 67% 29.83 in 10.0 mi SE 5.8 mph - N/A   Partly Cloudy
6:15 AM 59.0 °F 48.2 °F 67% 29.83 in 10.0 mi SE 6.9 mph - N/A   Partly Cloudy
6:35 AM 57.2 °F 50.0 °F 77% 29.84 in 10.0 mi SSE 5.8 mph - N/A   Clear
6:55 AM 57.2 °F 50.0 °F 77% 29.84 in 10.0 mi SSE 6.9 mph - N/A   Partly Cloudy
7:35 AM 62.6 °F 53.6 °F 72% 29.85 in 10.0 mi SSE 8.1 mph - N/A   Overcast
7:55 AM 64.4 °F 55.4 °F 73% 29.85 in 10.0 mi South 8.1 mph - N/A   Overcast
8:15 AM 64.4 °F 55.4 °F 73% 29.86 in 10.0 mi South 8.1 mph - N/A   Overcast
8:35 AM 66.2 °F 57.2 °F 73% 29.86 in 10.0 mi SSE 9.2 mph - N/A   Overcast
8:55 AM 66.2 °F 57.2 °F 73% 29.87 in 10.0 mi South 6.9 mph - N/A   Overcast
9:15 AM 68.0 °F 60.8 °F 78% 29.88 in 10.0 mi South 10.4 mph - N/A   Overcast
9:36 AM 69.8 °F 60.8 °F 73% 29.88 in 10.0 mi South 8.1 mph - N/A   Overcast
9:55 AM 71.6 °F 60.8 °F 69% 29.89 in 10.0 mi South 10.4 mph - N/A   Overcast
10:15 AM 71.6 °F 62.6 °F 73% 29.89 in 10.0 mi South 9.2 mph 17.3 mph N/A   Overcast
10:36 AM 71.6 °F 62.6 °F 73% 29.89 in 10.0 mi South 9.2 mph 19.6 mph N/A   Overcast
10:55 AM 71.6 °F 62.6 °F 73% 29.89 in 10.0 mi SSW 12.7 mph 20.7 mph N/A   Overcast
11:16 AM 73.4 °F 62.6 °F 69% 29.89 in 10.0 mi South 12.7 mph 21.9 mph N/A   Overcast
11:35 AM 73.4 °F 64.4 °F 73% 29.88 in 10.0 mi South 11.5 mph 20.7 mph N/A   Overcast
11:55 AM 73.4 °F 64.4 °F 73% 29.88 in 10.0 mi South 15.0 mph 20.7 mph N/A   Overcast
12:35 PM 73.4 °F 64.4 °F 73% 29.88 in 10.0 mi South 10.4 mph 18.4 mph N/A   Overcast
12:55 PM 75.2 °F 64.4 °F 69% 29.88 in 10.0 mi SSW 16.1 mph 23.0 mph N/A   Overcast
1:15 PM 75.2 °F 64.4 °F 69% 29.87 in 10.0 mi SSW 18.4 mph 25.3 mph N/A   Overcast
1:35 PM 75.2 °F 64.4 °F 69% 29.87 in 10.0 mi SSW 16.1 mph 24.2 mph N/A   Overcast
2:15 PM 75.2 °F 64.4 °F 69% 29.86 in 10.0 mi South 12.7 mph 17.3 mph N/A   Overcast
2:35 PM 75.2 °F 64.4 °F 69% 29.85 in 10.0 mi SSW 11.5 mph 20.7 mph N/A   Overcast
2:55 PM 75.2 °F 64.4 °F 69% 29.85 in 10.0 mi SSW 15.0 mph 20.7 mph N/A   Overcast
3:35 PM 77.0 °F 64.4 °F 65% 29.84 in 10.0 mi South 13.8 mph 20.7 mph N/A   Mostly Cloudy
3:55 PM 78.8 °F 64.4 °F 61% 29.84 in 10.0 mi South 11.5 mph 19.6 mph N/A   Mostly Cloudy
4:55 PM 77.0 °F 64.4 °F 65% 29.84 in 10.0 mi South 11.5 mph 24.2 mph N/A   Partly Cloudy
5:35 PM 75.2 °F 64.4 °F 69% 29.85 in 10.0 mi SSE 15.0 mph 19.6 mph N/A   Mostly Cloudy
5:55 PM 75.2 °F 64.4 °F 69% 29.85 in 10.0 mi SSE 10.4 mph 18.4 mph N/A   Overcast
6:15 PM 73.4 °F 62.6 °F 69% 29.85 in 10.0 mi South 11.5 mph 18.4 mph N/A   Mostly Cloudy
6:55 PM 71.6 °F 62.6 °F 73% 29.85 in 10.0 mi SSE 10.4 mph 17.3 mph N/A   Partly Cloudy
7:35 PM 71.6 °F 62.6 °F 73% 29.85 in 10.0 mi SSE 10.4 mph - N/A   Clear
7:55 PM 71.6 °F 62.6 °F 73% 29.86 in 10.0 mi South 9.2 mph - N/A   Clear
8:35 PM 69.8 °F 62.6 °F 78% 29.87 in 10.0 mi South 9.2 mph - N/A   Partly Cloudy
8:55 PM 69.8 °F 62.6 °F 78% 29.87 in 10.0 mi South 9.2 mph - N/A   Clear
9:15 PM 71.6 °F 62.6 °F 73% 29.88 in 10.0 mi South 8.1 mph - N/A   Clear
9:55 PM 71.6 °F 64.4 °F 78% 29.89 in 10.0 mi South 11.5 mph - N/A   Clear
10:55 PM 71.6 °F 64.4 °F 78% 29.89 in 10.0 mi South 11.5 mph 17.3 mph N/A   Clear
11:15 PM 71.6 °F 64.4 °F 78% 29.89 in 10.0 mi South 11.5 mph 19.6 mph N/A   Clear
11:35 PM 71.6 °F 64.4 °F 78% 29.89 in 10.0 mi South 12.7 mph 18.4 mph N/A   Clear
11:55 PM 71.6 °F 64.4 °F 78% 29.89 in 10.0 mi South 12.7 mph 16.1 mph N/A   Clear